Provincetown, MA

5:54 AM EDT on May 26, 2017 (GMT -0400)
Provincetown Municipal

Weather History for KPVC - February, 2013

Change the Weather History Date:

Friday, February 8, 2013

  Actual Average Record
Temperature  
Mean Temperature 32 °F -  
Max Temperature 35 °F 35 °F 48 °F (2009)
Min Temperature 28 °F 25 °F 17 °F (2000)
Degree Days  
Heating Degree Days 34    
Moisture  
Dew Point 27 °F    
Average Humidity 82    
Maximum Humidity 100    
Minimum Humidity 69    
Precipitation  
Precipitation 0.22 in - - ()
Sea Level Pressure  
Sea Level Pressure 30.19 in    
Wind  
Wind Speed 17 mph (East)    
Max Wind Speed 38 mph    
Max Gust Speed 50 mph    
Visibility 7 miles    
Events      
Averages and records for this station are not official NWS values.
T = Trace of Precipitation, MM = Missing Value Source: NWS Daily Summary

Daily Weather History Graph

Daily Weather History Graph

Search for Another Location

Airport or City:

Trip Planner

Search our weather history database for the weather conditions in past years. The results will help you decide how hot, cold, wet, or windy it might be!

Date:

Astronomy

Feb. 08, 2013 Rise Set
Actual Time 6:45 AM EST 5:05 PM EST
Civil Twilight 6:16 AM EST 5:34 PM EST
Nautical Twilight 5:43 AM EST 6:07 PM EST
Astronomical Twilight 5:11 AM EST 6:39 PM EST
Moon 5:12 AM EST (2/8) 3:34 PM EST (2/8)
Length of Visible Light 11h 17m
Length of Day
10h 19m
Waning Crescent, 3% of the Moon is Illuminated
Feb 8
Waning Crescent
Feb 10
New
Feb 17
First Quarter
Feb 25
Full
Mar 4
Last Quarter

Hourly Weather History & Observations

Time (EST) Temp. Windchill Dew Point Humidity Pressure Visibility Wind Dir Wind Speed Gust Speed Precip Events Conditions
12:15 AM 28.4 °F 19.7 °F 21.2 °F 74% 30.49 in 10.0 mi ESE 9.2 mph - N/A   Overcast
12:35 AM 28.4 °F 21.2 °F 21.2 °F 74% 30.49 in 10.0 mi ESE 6.9 mph - N/A   Overcast
12:55 AM 28.4 °F 20.4 °F 23.0 °F 80% 30.49 in 10.0 mi East 8.1 mph - N/A   Overcast
1:15 AM 28.4 °F 20.4 °F 21.2 °F 74% 30.48 in 10.0 mi ESE 8.1 mph - N/A   Mostly Cloudy
1:55 AM 28.4 °F 18.5 °F 21.2 °F 74% 30.46 in 10.0 mi East 11.5 mph - N/A   Overcast
2:15 AM 30.2 °F 21.3 °F 21.2 °F 69% 30.45 in 10.0 mi East 10.4 mph - N/A   Overcast
2:35 AM 30.2 °F 21.3 °F 23.0 °F 75% 30.44 in 10.0 mi East 10.4 mph 16.1 mph N/A   Overcast
2:55 AM 30.2 °F 20.8 °F 24.8 °F 80% 30.43 in 10.0 mi East 11.5 mph 16.1 mph N/A   Overcast
3:15 AM 30.2 °F 21.3 °F 23.0 °F 75% 30.43 in 10.0 mi East 10.4 mph 17.3 mph N/A   Overcast
3:35 AM 30.2 °F 20.8 °F 24.8 °F 80% 30.42 in 10.0 mi ESE 11.5 mph - N/A   Overcast
3:55 AM 30.2 °F 19.3 °F 23.0 °F 75% 30.41 in 10.0 mi East 15.0 mph - N/A   Overcast
4:35 AM 30.2 °F 20.2 °F 23.0 °F 75% 30.40 in 10.0 mi East 12.7 mph 19.6 mph N/A   Overcast
4:55 AM 30.2 °F 20.2 °F 24.8 °F 80% 30.40 in 10.0 mi ESE 12.7 mph - N/A   Overcast
5:35 AM 30.2 °F 19.8 °F 23.0 °F 75% 30.38 in 10.0 mi East 13.8 mph 18.4 mph N/A   Overcast
5:55 AM 30.2 °F 19.8 °F 21.2 °F 69% 30.37 in 10.0 mi ESE 13.8 mph 20.7 mph N/A   Overcast
6:15 AM 30.2 °F 19.8 °F 21.2 °F 69% 30.36 in 10.0 mi ESE 13.8 mph 19.6 mph N/A   Overcast
6:35 AM 30.2 °F 19.3 °F 24.8 °F 80% 30.35 in 10.0 mi East 15.0 mph - N/A   Overcast
6:55 AM 30.2 °F 19.3 °F 23.0 °F 75% 30.35 in 10.0 mi East 15.0 mph 20.7 mph N/A   Overcast
7:15 AM 30.2 °F 19.3 °F 23.0 °F 75% 30.36 in 10.0 mi ESE 15.0 mph 21.9 mph N/A   Overcast
7:35 AM 32.0 °F 22.1 °F 24.8 °F 75% 30.36 in 10.0 mi ESE 13.8 mph - N/A   Overcast
7:55 AM 32.0 °F 22.5 °F 23.0 °F 69% 30.34 in 10.0 mi East 12.7 mph 21.9 mph N/A   Overcast
8:15 AM 32.0 °F 20.1 °F 24.8 °F 75% 30.33 in 10.0 mi East 19.6 mph 25.3 mph N/A   Overcast
8:35 AM 33.8 °F 23.5 °F 24.8 °F 70% 30.32 in 10.0 mi ESE 16.1 mph 24.2 mph N/A   Overcast
8:55 AM 33.8 °F 22.5 °F 26.6 °F 75% 30.31 in 10.0 mi ESE 19.6 mph 27.6 mph N/A   Overcast
9:15 AM 33.8 °F 22.2 °F 24.8 °F 70% 30.30 in 10.0 mi East 20.7 mph 26.5 mph N/A   Overcast
9:35 AM 33.8 °F 22.8 °F 24.8 °F 70% 30.29 in 10.0 mi ESE 18.4 mph 28.8 mph N/A   Overcast
9:55 AM 33.8 °F 23.2 °F 26.6 °F 75% 30.28 in 10.0 mi East 17.3 mph 27.6 mph N/A   Overcast
10:15 AM 35.6 °F 24.5 °F 26.6 °F 70% 30.26 in 10.0 mi ESE 20.7 mph 32.2 mph N/A   Overcast
10:35 AM 35.6 °F 24.5 °F 28.4 °F 75% 30.25 in 10.0 mi East 20.7 mph 29.9 mph N/A   Overcast
10:55 AM 35.6 °F 24.5 °F 28.4 °F 75% 30.23 in 10.0 mi East 20.7 mph 28.8 mph N/A   Overcast
11:15 AM 35.6 °F 24.2 °F 28.4 °F 75% 30.22 in 10.0 mi East 21.9 mph 33.4 mph N/A   Overcast
11:35 AM 33.8 °F 21.0 °F 28.4 °F 81% 30.20 in 8.0 mi East 25.3 mph 33.4 mph N/A   Overcast
11:55 AM 33.8 °F 21.6 °F 30.2 °F 87% 30.17 in 7.0 mi East 23.0 mph 36.8 mph N/A   Overcast
12:15 PM 33.8 °F 21.3 °F 28.4 °F 81% 30.15 in 4.0 mi East 24.2 mph 34.5 mph N/A   Overcast
12:35 PM 33.8 °F 21.3 °F 30.2 °F 87% 30.14 in 2.5 mi East 24.2 mph 36.8 mph N/A   Overcast
12:55 PM 33.8 °F 20.3 °F 32.0 °F 93% 30.12 in 1.8 mi East 28.8 mph 35.7 mph N/A   Overcast
1:15 PM 33.8 °F 21.6 °F 30.2 °F 87% 30.11 in 1.8 mi East 23.0 mph 36.8 mph N/A   Overcast
1:35 PM 33.8 °F 20.5 °F 32.0 °F 93% 30.09 in 1.8 mi East 27.6 mph 35.7 mph N/A   Overcast
1:55 PM 33.8 °F 21.3 °F 30.2 °F 87% 30.08 in 1.5 mi East 24.2 mph 34.5 mph N/A   Overcast
2:15 PM 33.8 °F 21.3 °F 33.8 °F 100% 30.06 in 1.8 mi East 24.2 mph 33.4 mph 0.01 in   Overcast
2:35 PM 33.8 °F 20.5 °F 30.2 °F 87% 30.04 in 2.0 mi East 27.6 mph 34.5 mph 0.02 in   Overcast
2:55 PM 33.8 °F 20.8 °F 33.8 °F 100% 30.03 in 1.5 mi East 26.5 mph 36.8 mph 0.03 in   Overcast
3:15 PM 33.8 °F 20.1 °F 32.0 °F 93% 30.01 in 1.2 mi East 29.9 mph 39.1 mph 0.01 in   Overcast
3:35 PM 33.8 °F 20.3 °F 33.8 °F 100% 29.98 in 1.5 mi East 28.8 mph 38.0 mph 0.02 in   Overcast
3:55 PM 33.8 °F 20.5 °F 32.0 °F 93% 29.95 in 1.8 mi ENE 27.6 mph 40.3 mph 0.03 in   Overcast
4:15 PM 33.8 °F 19.9 °F 32.0 °F 93% 29.92 in 1.8 mi ENE 31.1 mph 41.4 mph 0.01 in   Overcast
4:35 PM 33.8 °F 20.1 °F 30.2 °F 87% 29.91 in 2.0 mi ENE 29.9 mph 43.7 mph 0.02 in   Overcast
4:55 PM 33.8 °F 20.1 °F 33.8 °F 100% 29.89 in 1.8 mi ENE 29.9 mph 40.3 mph 0.04 in   Overcast
5:15 PM 33.8 °F 19.9 °F 32.0 °F 93% 29.87 in 1.8 mi ENE 31.1 mph 46.0 mph 0.01 in   Overcast
5:35 PM 33.8 °F 19.9 °F 32.0 °F 93% 29.86 in 1.8 mi ENE 31.1 mph 43.7 mph 0.03 in   Overcast
5:55 PM 33.8 °F 19.4 °F 32.0 °F 93% 29.84 in 1.8 mi ENE 33.4 mph 46.0 mph 0.04 in   Overcast
6:15 PM 33.8 °F 19.4 °F 30.2 °F 87% 29.82 in 1.8 mi ENE 33.4 mph 42.6 mph 0.02 in   Overcast
6:35 PM 33.8 °F 19.0 °F 33.8 °F 100% 29.80 in 1.8 mi ENE 35.7 mph 49.5 mph 0.04 in   Overcast
6:55 PM 33.8 °F 19.0 °F 32.0 °F 93% 29.78 in 1.5 mi ENE 35.7 mph 49.5 mph 0.05 in   Overcast
7:15 PM 33.8 °F 19.0 °F 33.8 °F 100% 29.75 in 1.8 mi ENE 35.7 mph 49.5 mph 0.01 in   Overcast
7:35 PM 33.8 °F 18.6 °F 33.8 °F 100% 29.71 in 1.8 mi ENE 38.0 mph 48.3 mph 0.03 in   Overcast